Time,TemperatureF,DewpointF,PressureIn,WindDirection,WindDirectionDegrees,WindSpeedMPH,WindSpeedGustMPH,Humidity,HourlyPrecipIn,Conditions,Clouds,dailyrainin,SoftwareType,DateUTC
2013-08-17 00:01:00,65.2,57.8,30.13,ENE,72,0.0,0.0,77,0.00,,,0.00,WUHU216DAVISVP2,2013-08-17 05:01:00,
2013-08-17 00:06:00,65.0,58.0,30.13,ENE,62,0.0,0.0,78,0.00,,,0.00,WUHU216DAVISVP2,2013-08-17 05:06:00,
2013-08-17 00:11:00,65.0,58.1,30.13,East,84,0.0,0.0,78,0.00,,,0.00,WUHU216DAVISVP2,2013-08-17 05:11:00,
2013-08-17 00:16:00,64.9,58.0,30.13,ENE,70,3.0,4.0,78,0.00,,,0.00,WUHU216DAVISVP2,2013-08-17 05:16:00,
2013-08-17 00:21:00,64.9,57.6,30.13,ENE,68,2.0,4.0,77,0.00,,,0.00,WUHU216DAVISVP2,2013-08-17 05:21:00,
2013-08-17 00:26:00,64.9,58.0,30.13,East,79,2.0,4.0,78,0.00,,,0.00,WUHU216DAVISVP2,2013-08-17 05:26:00,
2013-08-17 00:31:00,64.9,57.6,30.13,ENE,75,2.0,4.0,77,0.00,,,0.00,WUHU216DAVISVP2,2013-08-17 05:31:00,
2013-08-17 00:36:00,65.0,57.7,30.13,ENE,72,2.0,5.0,77,0.00,,,0.00,WUHU216DAVISVP2,2013-08-17 05:36:00,
2013-08-17 00:41:00,65.0,57.7,30.13,ENE,67,2.0,5.0,77,0.00,,,0.00,WUHU216DAVISVP2,2013-08-17 05:41:00,
2013-08-17 00:46:00,64.9,57.6,30.13,ENE,64,2.0,5.0,77,0.00,,,0.00,WUHU216DAVISVP2,2013-08-17 05:46:00,
2013-08-17 00:51:00,64.9,57.6,30.13,ENE,72,2.0,5.0,77,0.00,,,0.00,WUHU216DAVISVP2,2013-08-17 05:51:00,
2013-08-17 00:56:00,65.0,57.4,30.12,ENE,68,3.0,5.0,76,0.00,,,0.00,WUHU216DAVISVP2,2013-08-17 05:56:00,
2013-08-17 01:01:00,65.0,57.4,30.12,ENE,70,3.0,5.0,76,0.00,,,0.00,WUHU216DAVISVP2,2013-08-17 06:01:00,
2013-08-17 01:06:00,64.9,57.5,30.12,ENE,64,1.0,4.0,77,0.00,,,0.00,WUHU216DAVISVP2,2013-08-17 06:06:00,
2013-08-17 01:11:00,64.8,57.8,30.12,East,80,0.0,3.0,78,0.00,,,0.00,WUHU216DAVISVP2,2013-08-17 06:11:00,
2013-08-17 01:16:00,64.5,57.5,30.12,East,92,0.0,2.0,78,0.00,,,0.00,WUHU216DAVISVP2,2013-08-17 06:16:00,
2013-08-17 01:21:00,64.3,57.6,30.12,NE,51,0.0,1.0,79,0.00,,,0.00,WUHU216DAVISVP2,2013-08-17 06:21:00,
2013-08-17 01:26:00,64.2,57.5,30.12,NE,50,1.0,1.0,79,0.00,,,0.00,WUHU216DAVISVP2,2013-08-17 06:26:00,
2013-08-17 01:31:00,64.0,57.4,30.12,ENE,76,0.0,1.0,79,0.00,,,0.00,WUHU216DAVISVP2,2013-08-17 06:31:00,
2013-08-17 01:36:00,63.8,57.5,30.12,ENE,76,0.0,1.0,80,0.00,,,0.00,WUHU216DAVISVP2,2013-08-17 06:36:00,
2013-08-17 01:41:00,63.7,57.5,30.12,ENE,76,0.0,2.0,80,0.00,,,0.00,WUHU216DAVISVP2,2013-08-17 06:41:00,
2013-08-17 01:46:00,63.8,57.6,30.12,ENE,72,0.0,2.0,80,0.00,,,0.00,WUHU216DAVISVP2,2013-08-17 06:46:00,
2013-08-17 01:51:00,63.7,57.5,30.12,ENE,75,0.0,1.0,80,0.00,,,0.00,WUHU216DAVISVP2,2013-08-17 06:51:00,
2013-08-17 01:56:00,63.4,57.5,30.12,ENE,72,0.0,1.0,81,0.00,,,0.00,WUHU216DAVISVP2,2013-08-17 06:56:00,
2013-08-17 02:01:00,63.4,57.5,30.12,ENE,70,0.0,1.0,81,0.00,,,0.00,WUHU216DAVISVP2,2013-08-17 07:01:00,
2013-08-17 02:06:00,63.4,57.5,30.12,ENE,63,0.0,2.0,81,0.00,,,0.00,WUHU216DAVISVP2,2013-08-17 07:06:00,
2013-08-17 02:11:00,63.4,57.5,30.12,ENE,65,1.0,2.0,81,0.00,,,0.00,WUHU216DAVISVP2,2013-08-17 07:11:00,
2013-08-17 02:16:00,63.4,57.5,30.12,ENE,65,0.0,1.0,81,0.00,,,0.00,WUHU216DAVISVP2,2013-08-17 07:16:00,
2013-08-17 02:21:00,63.4,57.2,30.12,ENE,70,1.0,1.0,80,0.00,,,0.00,WUHU216DAVISVP2,2013-08-17 07:21:00,
2013-08-17 02:26:00,63.4,57.5,30.12,East,83,1.0,2.0,81,0.00,,,0.00,WUHU216DAVISVP2,2013-08-17 07:26:00,
2013-08-17 02:31:00,63.4,57.5,30.12,East,96,0.0,2.0,81,0.00,,,0.00,WUHU216DAVISVP2,2013-08-17 07:31:00,
2013-08-17 02:36:00,63.5,57.6,30.12,ENE,70,0.0,2.0,81,0.00,,,0.00,WUHU216DAVISVP2,2013-08-17 07:36:00,
2013-08-17 02:41:00,63.7,57.5,30.12,ENE,66,1.0,4.0,80,0.00,,,0.00,WUHU216DAVISVP2,2013-08-17 07:41:00,
2013-08-17 02:46:00,63.8,57.6,30.12,ENE,70,3.0,4.0,80,0.00,,,0.00,WUHU216DAVISVP2,2013-08-17 07:46:00,
2013-08-17 02:51:00,63.8,57.6,30.12,NE,43,0.0,4.0,80,0.00,,,0.00,WUHU216DAVISVP2,2013-08-17 07:51:00,
2013-08-17 02:56:00,63.8,57.6,30.12,ENE,65,0.0,2.0,80,0.00,,,0.00,WUHU216DAVISVP2,2013-08-17 07:56:00,
2013-08-17 03:01:00,63.9,58.0,30.12,ENE,71,0.0,3.0,81,0.00,,,0.00,WUHU216DAVISVP2,2013-08-17 08:01:00,
2013-08-17 03:06:00,63.9,57.7,30.11,ENE,76,1.0,3.0,80,0.00,,,0.00,WUHU216DAVISVP2,2013-08-17 08:06:00,
2013-08-17 03:11:00,63.9,57.7,30.11,ENE,60,2.0,2.0,80,0.00,,,0.00,WUHU216DAVISVP2,2013-08-17 08:11:00,
2013-08-17 03:16:00,64.0,57.8,30.11,ENE,68,0.0,2.0,80,0.00,,,0.00,WUHU216DAVISVP2,2013-08-17 08:16:00,
2013-08-17 03:21:00,63.9,58.0,30.11,ENE,71,0.0,2.0,81,0.00,,,0.00,WUHU216DAVISVP2,2013-08-17 08:21:00,
2013-08-17 03:26:00,63.9,58.0,30.11,ENE,64,0.0,2.0,81,0.00,,,0.00,WUHU216DAVISVP2,2013-08-17 08:26:00,
2013-08-17 03:31:00,63.9,58.0,30.11,ENE,66,2.0,2.0,81,0.00,,,0.00,WUHU216DAVISVP2,2013-08-17 08:31:00,
2013-08-17 03:36:00,63.9,58.0,30.11,ENE,74,1.0,4.0,81,0.00,,,0.00,WUHU216DAVISVP2,2013-08-17 08:36:00,
2013-08-17 03:41:00,63.8,57.9,30.11,ENE,77,0.0,4.0,81,0.00,,,0.00,WUHU216DAVISVP2,2013-08-17 08:41:00,
2013-08-17 03:46:00,63.8,57.5,30.11,ENE,73,1.0,3.0,80,0.00,,,0.00,WUHU216DAVISVP2,2013-08-17 08:46:00,
2013-08-17 03:51:00,63.8,57.9,30.11,ENE,65,0.0,3.0,81,0.00,,,0.00,WUHU216DAVISVP2,2013-08-17 08:51:00,
2013-08-17 03:56:00,63.8,57.9,30.12,East,83,1.0,2.0,81,0.00,,,0.00,WUHU216DAVISVP2,2013-08-17 08:56:00,
2013-08-17 04:01:00,63.8,57.9,30.12,East,79,0.0,2.0,81,0.00,,,0.00,WUHU216DAVISVP2,2013-08-17 09:01:00,
2013-08-17 04:06:00,63.8,57.9,30.12,ENE,70,2.0,2.0,81,0.00,,,0.00,WUHU216DAVISVP2,2013-08-17 09:06:00,
2013-08-17 04:11:00,63.8,57.9,30.12,ENE,63,2.0,3.0,81,0.00,,,0.00,WUHU216DAVISVP2,2013-08-17 09:11:00,
2013-08-17 04:16:00,63.8,57.9,30.12,ENE,70,1.0,4.0,81,0.00,,,0.00,WUHU216DAVISVP2,2013-08-17 09:16:00,
2013-08-17 04:21:00,63.8,57.9,30.11,NE,56,1.0,4.0,81,0.00,,,0.00,WUHU216DAVISVP2,2013-08-17 09:21:00,
2013-08-17 04:26:00,63.7,57.8,30.11,East,82,3.0,4.0,81,0.00,,,0.00,WUHU216DAVISVP2,2013-08-17 09:26:00,
2013-08-17 04:31:00,63.7,58.1,30.11,East,87,2.0,3.0,82,0.00,,,0.00,WUHU216DAVISVP2,2013-08-17 09:31:00,
2013-08-17 04:36:00,63.6,58.0,30.11,East,91,0.0,3.0,82,0.00,,,0.00,WUHU216DAVISVP2,2013-08-17 09:36:00,
2013-08-17 04:41:00,63.5,58.0,30.11,ENE,72,0.0,3.0,82,0.00,,,0.00,WUHU216DAVISVP2,2013-08-17 09:41:00,
2013-08-17 04:46:00,63.5,58.0,30.11,NE,39,0.0,3.0,82,0.00,,,0.00,WUHU216DAVISVP2,2013-08-17 09:46:00,
2013-08-17 04:51:00,63.4,57.9,30.11,NE,52,0.0,3.0,82,0.00,,,0.00,WUHU216DAVISVP2,2013-08-17 09:51:00,
2013-08-17 04:56:00,63.4,58.2,30.11,North,8,0.0,2.0,83,0.00,,,0.00,WUHU216DAVISVP2,2013-08-17 09:56:00,
2013-08-17 05:01:00,63.3,58.1,30.11,ENE,73,1.0,2.0,83,0.00,,,0.00,WUHU216DAVISVP2,2013-08-17 10:01:00,
2013-08-17 05:06:00,63.3,58.1,30.12,ENE,68,2.0,2.0,83,0.00,,,0.00,WUHU216DAVISVP2,2013-08-17 10:06:00,
2013-08-17 05:11:00,63.3,58.1,30.12,ENE,60,1.0,3.0,83,0.00,,,0.00,WUHU216DAVISVP2,2013-08-17 10:11:00,
2013-08-17 05:16:00,63.2,58.0,30.12,NNE,33,2.0,3.0,83,0.00,,,0.00,WUHU216DAVISVP2,2013-08-17 10:16:00,
2013-08-17 05:21:00,63.2,58.0,30.12,ENE,69,0.0,3.0,83,0.00,,,0.00,WUHU216DAVISVP2,2013-08-17 10:21:00,
2013-08-17 05:26:00,63.2,58.0,30.12,ENE,58,0.0,3.0,83,0.00,,,0.00,WUHU216DAVISVP2,2013-08-17 10:26:00,
2013-08-17 05:31:00,63.2,58.0,30.12,NE,47,0.0,2.0,83,0.00,,,0.00,WUHU216DAVISVP2,2013-08-17 10:31:00,
2013-08-17 05:36:00,63.2,58.0,30.12,ENE,58,1.0,2.0,83,0.00,,,0.00,WUHU216DAVISVP2,2013-08-17 10:36:00,
2013-08-17 05:41:00,63.2,58.0,30.12,ENE,68,0.0,3.0,83,0.00,,,0.00,WUHU216DAVISVP2,2013-08-17 10:41:00,
2013-08-17 05:46:00,63.2,57.9,30.12,NE,34,1.0,3.0,83,0.00,,,0.00,WUHU216DAVISVP2,2013-08-17 10:46:00,
2013-08-17 05:51:00,63.2,58.3,30.12,ENE,57,0.0,3.0,84,0.00,,,0.00,WUHU216DAVISVP2,2013-08-17 10:51:00,
2013-08-17 05:56:00,63.2,57.9,30.12,ENE,78,1.0,3.0,83,0.00,,,0.00,WUHU216DAVISVP2,2013-08-17 10:56:00,
2013-08-17 06:01:00,63.2,57.9,30.12,NE,56,1.0,3.0,83,0.00,,,0.00,WUHU216DAVISVP2,2013-08-17 11:01:00,
2013-08-17 06:06:00,63.3,58.1,30.12,ENE,68,2.0,4.0,83,0.00,,,0.00,WUHU216DAVISVP2,2013-08-17 11:06:00,
2013-08-17 06:11:00,63.3,58.0,30.13,ENE,58,3.0,5.0,83,0.00,,,0.00,WUHU216DAVISVP2,2013-08-17 11:11:00,
2013-08-17 06:16:00,63.3,58.1,30.13,ENE,59,3.0,4.0,83,0.00,,,0.00,WUHU216DAVISVP2,2013-08-17 11:16:00,
2013-08-17 06:21:00,63.4,57.9,30.13,ENE,62,5.0,7.0,82,0.00,,,0.00,WUHU216DAVISVP2,2013-08-17 11:21:00,
2013-08-17 06:26:00,63.5,58.0,30.13,ENE,70,3.0,7.0,82,0.00,,,0.00,WUHU216DAVISVP2,2013-08-17 11:26:00,
2013-08-17 06:31:00,63.5,58.0,30.13,ENE,58,5.0,7.0,82,0.00,,,0.00,WUHU216DAVISVP2,2013-08-17 11:31:00,
2013-08-17 06:36:00,63.5,58.3,30.13,ENE,59,4.0,7.0,83,0.00,,,0.00,WUHU216DAVISVP2,2013-08-17 11:36:00,
2013-08-17 06:41:00,63.5,58.0,30.13,NE,55,3.0,7.0,82,0.00,,,0.00,WUHU216DAVISVP2,2013-08-17 11:41:00,
2013-08-17 06:46:00,63.5,58.0,30.13,ENE,60,3.0,7.0,82,0.00,,,0.00,WUHU216DAVISVP2,2013-08-17 11:46:00,
2013-08-17 06:51:00,63.5,58.3,30.13,East,88,4.0,7.0,83,0.00,,,0.00,WUHU216DAVISVP2,2013-08-17 11:51:00,
2013-08-17 06:56:00,63.5,58.0,30.13,ENE,68,3.0,6.0,82,0.00,,,0.00,WUHU216DAVISVP2,2013-08-17 11:56:00,
2013-08-17 07:01:00,63.4,57.9,30.13,ENE,68,3.0,6.0,82,0.00,,,0.00,WUHU216DAVISVP2,2013-08-17 12:01:00,
2013-08-17 07:06:00,63.4,57.9,30.13,ENE,69,4.0,6.0,82,0.00,,,0.00,WUHU216DAVISVP2,2013-08-17 12:06:00,
2013-08-17 07:11:00,63.3,58.1,30.14,ENE,65,4.0,6.0,83,0.00,,,0.00,WUHU216DAVISVP2,2013-08-17 12:11:00,
2013-08-17 07:16:00,63.3,58.1,30.14,ENE,68,2.0,5.0,83,0.00,,,0.00,WUHU216DAVISVP2,2013-08-17 12:16:00,
2013-08-17 07:21:00,63.2,58.0,30.14,ENE,68,2.0,5.0,83,0.00,,,0.00,WUHU216DAVISVP2,2013-08-17 12:21:00,
2013-08-17 07:26:00,63.2,58.0,30.14,ENE,70,2.0,4.0,83,0.00,,,0.00,WUHU216DAVISVP2,2013-08-17 12:26:00,
2013-08-17 07:31:00,63.3,58.4,30.14,ENE,62,2.0,4.0,84,0.00,,,0.00,WUHU216DAVISVP2,2013-08-17 12:31:00,
2013-08-17 07:36:00,63.3,58.1,30.14,ENE,65,3.0,3.0,83,0.00,,,0.00,WUHU216DAVISVP2,2013-08-17 12:36:00,
2013-08-17 07:40:00,63.4,58.2,30.14,ENE,64,2.0,6.0,83,0.00,,,0.00,WUHU216DAVISVP2,2013-08-17 12:40:00,
2013-08-17 07:46:00,63.4,58.5,30.15,ENE,72,2.0,6.0,84,0.00,,,0.00,WUHU216DAVISVP2,2013-08-17 12:46:00,
2013-08-17 07:50:00,63.5,58.3,30.15,ENE,69,2.0,3.0,83,0.00,,,0.00,WUHU216DAVISVP2,2013-08-17 12:50:00,
2013-08-17 07:55:00,63.5,58.6,30.15,NE,41,0.0,3.0,84,0.00,,,0.00,WUHU216DAVISVP2,2013-08-17 12:55:00,
2013-08-17 08:00:00,63.7,58.4,30.15,East,101,1.0,3.0,83,0.00,,,0.00,WUHU216DAVISVP2,2013-08-17 13:00:00,
2013-08-17 08:05:00,63.9,58.6,30.15,NNW,345,0.0,2.0,83,0.00,,,0.00,WUHU216DAVISVP2,2013-08-17 13:05:00,
2013-08-17 08:10:00,64.1,58.8,30.15,NNW,344,0.0,3.0,83,0.00,,,0.00,WUHU216DAVISVP2,2013-08-17 13:10:00,
2013-08-17 08:15:00,64.3,59.0,30.15,ENE,60,1.0,3.0,83,0.00,,,0.00,WUHU216DAVISVP2,2013-08-17 13:15:00,
2013-08-17 08:20:00,64.3,58.7,30.15,ENE,74,2.0,5.0,82,0.00,,,0.00,WUHU216DAVISVP2,2013-08-17 13:20:00,
2013-08-17 08:25:00,64.3,58.7,30.15,ENE,67,3.0,5.0,82,0.00,,,0.00,WUHU216DAVISVP2,2013-08-17 13:25:00,
2013-08-17 08:30:00,64.3,59.1,30.15,NE,53,4.0,5.0,83,0.00,,,0.00,WUHU216DAVISVP2,2013-08-17 13:30:00,
2013-08-17 08:35:00,64.4,59.2,30.15,NE,49,3.0,8.0,83,0.00,,,0.00,WUHU216DAVISVP2,2013-08-17 13:35:00,
2013-08-17 08:40:00,64.4,59.2,30.16,ENE,57,4.0,8.0,83,0.00,,,0.00,WUHU216DAVISVP2,2013-08-17 13:40:00,
2013-08-17 08:45:00,64.5,59.3,30.15,NE,51,6.0,7.0,83,0.00,,,0.00,WUHU216DAVISVP2,2013-08-17 13:45:00,
2013-08-17 08:50:00,64.7,59.5,30.16,NE,56,5.0,7.0,83,0.00,,,0.00,WUHU216DAVISVP2,2013-08-17 13:50:00,
2013-08-17 08:55:00,64.9,59.3,30.15,ENE,58,4.0,9.0,82,0.00,,,0.00,WUHU216DAVISVP2,2013-08-17 13:55:00,
2013-08-17 09:00:00,65.3,59.4,30.15,NE,56,9.0,9.0,81,0.00,,,0.00,WUHU216DAVISVP2,2013-08-17 14:00:00,
2013-08-17 09:05:00,65.6,59.3,30.16,ENE,63,6.0,9.0,80,0.00,,,0.00,WUHU216DAVISVP2,2013-08-17 14:05:00,
2013-08-17 09:10:00,65.8,59.9,30.16,ENE,77,5.0,8.0,81,0.00,,,0.00,WUHU216DAVISVP2,2013-08-17 14:10:00,
2013-08-17 09:15:00,66.3,60.0,30.16,ENE,74,5.0,8.0,80,0.00,,,0.00,WUHU216DAVISVP2,2013-08-17 14:15:00,
2013-08-17 09:20:00,66.6,60.0,30.16,NE,56,6.0,8.0,79,0.00,,,0.00,WUHU216DAVISVP2,2013-08-17 14:20:00,
2013-08-17 09:25:00,66.8,60.5,30.16,NE,56,8.0,10.0,80,0.00,,,0.00,WUHU216DAVISVP2,2013-08-17 14:25:00,
2013-08-17 09:30:00,66.8,60.2,30.16,ESE,120,7.0,12.0,79,0.00,,,0.00,WUHU216DAVISVP2,2013-08-17 14:30:00,
2013-08-17 09:35:00,66.7,60.1,30.16,ENE,77,6.0,12.0,79,0.00,,,0.00,WUHU216DAVISVP2,2013-08-17 14:35:00,
2013-08-17 09:40:00,66.7,60.1,30.16,ENE,73,6.0,10.0,79,0.00,,,0.00,WUHU216DAVISVP2,2013-08-17 14:40:00,
2013-08-17 09:45:00,67.0,60.7,30.16,East,89,5.0,10.0,80,0.00,,,0.00,WUHU216DAVISVP2,2013-08-17 14:45:00,
2013-08-17 09:50:00,67.1,60.8,30.17,East,94,4.0,9.0,80,0.00,,,0.00,WUHU216DAVISVP2,2013-08-17 14:50:00,
2013-08-17 09:55:00,67.2,60.6,30.17,East,98,2.0,9.0,79,0.00,,,0.00,WUHU216DAVISVP2,2013-08-17 14:55:00,
2013-08-17 10:00:00,67.5,61.2,30.17,East,82,4.0,9.0,80,0.00,,,0.00,WUHU216DAVISVP2,2013-08-17 15:00:00,
2013-08-17 10:05:00,67.9,61.6,30.17,ENE,74,4.0,7.0,80,0.00,,,0.00,WUHU216DAVISVP2,2013-08-17 15:05:00,
2013-08-17 10:10:00,68.2,61.9,30.17,ESE,102,6.0,9.0,80,0.00,,,0.00,WUHU216DAVISVP2,2013-08-17 15:10:00,
2013-08-17 10:15:00,68.3,62.0,30.17,East,87,3.0,9.0,80,0.00,,,0.00,WUHU216DAVISVP2,2013-08-17 15:15:00,
2013-08-17 10:20:00,68.5,61.8,30.17,NE,54,6.0,8.0,79,0.00,,,0.00,WUHU216DAVISVP2,2013-08-17 15:20:00,
2013-08-17 10:25:00,68.3,62.0,30.17,ENE,61,3.0,8.0,80,0.00,,,0.00,WUHU216DAVISVP2,2013-08-17 15:25:00,
2013-08-17 10:30:00,68.4,62.1,30.17,ESE,109,0.0,8.0,80,0.00,,,0.00,WUHU216DAVISVP2,2013-08-17 15:30:00,
2013-08-17 10:35:00,68.5,62.2,30.17,ENE,72,5.0,5.0,80,0.00,,,0.00,WUHU216DAVISVP2,2013-08-17 15:35:00,
2013-08-17 10:40:00,68.3,61.6,30.17,East,88,1.0,5.0,79,0.00,,,0.00,WUHU216DAVISVP2,2013-08-17 15:40:00,
2013-08-17 10:45:00,68.3,62.0,30.17,East,79,4.0,4.0,80,0.00,,,0.00,WUHU216DAVISVP2,2013-08-17 15:45:00,
2013-08-17 10:50:00,68.1,61.8,30.17,ENE,68,4.0,4.0,80,0.00,,,0.00,WUHU216DAVISVP2,2013-08-17 15:50:00,
2013-08-17 10:55:00,68.0,62.0,30.17,East,91,2.0,4.0,81,0.00,,,0.00,WUHU216DAVISVP2,2013-08-17 15:55:00,
2013-08-17 11:00:00,68.1,62.1,30.17,NE,51,5.0,5.0,81,0.00,,,0.00,WUHU216DAVISVP2,2013-08-17 16:00:00,
2013-08-17 11:05:00,68.0,62.0,30.17,ESE,106,0.0,5.0,81,0.00,,,0.00,WUHU216DAVISVP2,2013-08-17 16:05:00,
2013-08-17 11:10:00,68.2,61.9,30.17,East,81,2.0,5.0,80,0.00,,,0.00,WUHU216DAVISVP2,2013-08-17 16:10:00,
2013-08-17 11:15:00,68.5,62.5,30.17,ENE,74,4.0,4.0,81,0.00,,,0.00,WUHU216DAVISVP2,2013-08-17 16:15:00,
2013-08-17 11:20:00,68.5,62.2,30.17,ESE,102,2.0,7.0,80,0.00,,,0.00,WUHU216DAVISVP2,2013-08-17 16:20:00,
2013-08-17 11:25:00,68.9,62.6,30.16,ENE,72,1.0,7.0,80,0.00,,,0.00,WUHU216DAVISVP2,2013-08-17 16:25:00,
2013-08-17 11:30:00,69.5,63.5,30.16,ESE,116,1.0,4.0,81,0.00,,,0.00,WUHU216DAVISVP2,2013-08-17 16:30:00,
2013-08-17 11:35:00,70.3,63.6,30.16,ENE,70,2.0,3.0,79,0.00,,,0.00,WUHU216DAVISVP2,2013-08-17 16:35:00,
2013-08-17 11:40:00,70.1,63.3,30.16,ENE,65,2.0,5.0,79,0.00,,,0.00,WUHU216DAVISVP2,2013-08-17 16:40:00,
2013-08-17 11:45:00,70.0,62.8,30.16,ENE,68,5.0,6.0,78,0.00,,,0.00,WUHU216DAVISVP2,2013-08-17 16:45:00,
2013-08-17 11:50:00,69.7,62.9,30.16,East,85,4.0,6.0,79,0.00,,,0.00,WUHU216DAVISVP2,2013-08-17 16:50:00,
2013-08-17 11:55:00,69.6,63.2,30.16,ENE,75,4.0,7.0,80,0.00,,,0.00,WUHU216DAVISVP2,2013-08-17 16:55:00,
2013-08-17 12:00:00,69.5,63.1,30.16,ENE,69,4.0,7.0,80,0.00,,,0.00,WUHU216DAVISVP2,2013-08-17 17:00:00,
2013-08-17 12:05:00,69.6,63.5,30.16,East,101,0.0,6.0,81,0.00,,,0.00,WUHU216DAVISVP2,2013-08-17 17:05:00,
2013-08-17 12:10:00,69.7,63.3,30.16,ENE,69,5.0,6.0,80,0.00,,,0.00,WUHU216DAVISVP2,2013-08-17 17:10:00,
2013-08-17 12:15:00,69.9,63.9,30.16,ENE,67,3.0,6.0,81,0.00,,,0.00,WUHU216DAVISVP2,2013-08-17 17:15:00,
2013-08-17 12:20:00,70.0,63.6,30.16,NE,52,2.0,7.0,80,0.00,,,0.00,WUHU216DAVISVP2,2013-08-17 17:20:00,
2013-08-17 12:25:00,70.1,64.1,30.15,NE,56,6.0,7.0,81,0.00,,,0.00,WUHU216DAVISVP2,2013-08-17 17:25:00,
2013-08-17 12:30:00,70.5,64.1,30.15,ENE,65,2.0,7.0,80,0.00,,,0.00,WUHU216DAVISVP2,2013-08-17 17:30:00,
2013-08-17 12:35:00,71.4,64.6,30.15,NE,46,0.0,7.0,79,0.00,,,0.00,WUHU216DAVISVP2,2013-08-17 17:35:00,
2013-08-17 12:40:00,72.9,65.8,30.14,East,101,4.0,6.0,78,0.00,,,0.00,WUHU216DAVISVP2,2013-08-17 17:40:00,
2013-08-17 12:45:00,73.1,64.9,30.14,West,275,0.0,6.0,75,0.00,,,0.00,WUHU216DAVISVP2,2013-08-17 17:45:00,
2013-08-17 12:50:00,74.0,66.1,30.14,West,275,2.0,6.0,76,0.00,,,0.00,WUHU216DAVISVP2,2013-08-17 17:50:00,
2013-08-17 12:55:00,75.3,67.4,30.14,East,94,1.0,3.0,76,0.00,,,0.00,WUHU216DAVISVP2,2013-08-17 17:55:00,
2013-08-17 13:00:00,75.0,65.2,30.13,ENE,74,4.0,6.0,71,0.00,,,0.00,WUHU216DAVISVP2,2013-08-17 18:00:00,
2013-08-17 13:05:00,75.4,66.7,30.13,SW,233,1.0,6.0,74,0.00,,,0.00,WUHU216DAVISVP2,2013-08-17 18:05:00,
2013-08-17 13:10:00,76.0,66.5,30.13,ENE,60,3.0,6.0,72,0.00,,,0.00,WUHU216DAVISVP2,2013-08-17 18:10:00,
2013-08-17 13:15:00,76.5,64.9,30.13,NW,322,5.0,6.0,67,0.00,,,0.00,WUHU216DAVISVP2,2013-08-17 18:15:00,
2013-08-17 13:20:00,76.6,65.2,30.13,East,82,8.0,8.0,68,0.00,,,0.00,WUHU216DAVISVP2,2013-08-17 18:20:00,
2013-08-17 13:25:00,75.7,65.0,30.13,ENE,58,6.0,8.0,69,0.00,,,0.00,WUHU216DAVISVP2,2013-08-17 18:25:00,
2013-08-17 13:30:00,76.1,65.8,30.13,ENE,73,3.0,7.0,70,0.00,,,0.00,WUHU216DAVISVP2,2013-08-17 18:30:00,
2013-08-17 13:35:00,75.9,66.0,30.12,NNW,331,1.0,7.0,71,0.00,,,0.00,WUHU216DAVISVP2,2013-08-17 18:35:00,
2013-08-17 13:40:00,76.4,65.7,30.12,ENE,73,2.0,7.0,69,0.00,,,0.00,WUHU216DAVISVP2,2013-08-17 18:40:00,
2013-08-17 13:45:00,76.7,66.0,30.12,NW,317,1.0,6.0,69,0.00,,,0.00,WUHU216DAVISVP2,2013-08-17 18:45:00,
2013-08-17 13:50:00,76.8,66.1,30.12,ENE,72,5.0,10.0,69,0.00,,,0.00,WUHU216DAVISVP2,2013-08-17 18:50:00,
2013-08-17 13:55:00,77.3,65.7,30.12,NE,41,2.0,10.0,67,0.00,,,0.00,WUHU216DAVISVP2,2013-08-17 18:55:00,
2013-08-17 14:00:00,77.5,65.5,30.12,ENE,58,2.0,7.0,66,0.00,,,0.00,WUHU216DAVISVP2,2013-08-17 19:00:00,
2013-08-17 14:05:00,77.2,64.8,30.12,ENE,73,4.0,10.0,65,0.00,,,0.00,WUHU216DAVISVP2,2013-08-17 19:05:00,
2013-08-17 14:10:00,76.4,64.4,30.12,ENE,63,5.0,10.0,66,0.00,,,0.00,WUHU216DAVISVP2,2013-08-17 19:10:00,
2013-08-17 14:15:00,76.2,64.7,30.12,NNE,18,2.0,6.0,67,0.00,,,0.00,WUHU216DAVISVP2,2013-08-17 19:15:00,
2013-08-17 14:20:00,76.2,65.5,30.12,ENE,64,6.0,6.0,69,0.00,,,0.00,WUHU216DAVISVP2,2013-08-17 19:20:00,
2013-08-17 14:25:00,76.1,65.4,30.12,ENE,75,2.0,6.0,69,0.00,,,0.00,WUHU216DAVISVP2,2013-08-17 19:25:00,
2013-08-17 14:30:00,75.5,64.4,30.12,NE,51,2.0,8.0,68,0.00,,,0.00,WUHU216DAVISVP2,2013-08-17 19:30:00,
2013-08-17 14:35:00,75.5,65.6,30.11,ENE,58,5.0,8.0,71,0.00,,,0.00,WUHU216DAVISVP2,2013-08-17 19:35:00,
2013-08-17 14:40:00,75.5,64.6,30.11,SSE,157,1.0,7.0,69,0.00,,,0.00,WUHU216DAVISVP2,2013-08-17 19:40:00,
2013-08-17 14:45:00,75.3,64.8,30.11,ENE,66,6.0,7.0,70,0.00,,,0.00,WUHU216DAVISVP2,2013-08-17 19:45:00,
2013-08-17 14:50:00,75.6,64.9,30.11,NNW,333,1.0,7.0,69,0.00,,,0.00,WUHU216DAVISVP2,2013-08-17 19:50:00,
2013-08-17 14:55:00,75.7,64.2,30.11,East,80,4.0,7.0,67,0.00,,,0.00,WUHU216DAVISVP2,2013-08-17 19:55:00,
2013-08-17 15:00:00,75.3,63.8,30.11,ENE,69,4.0,6.0,67,0.00,,,0.00,WUHU216DAVISVP2,2013-08-17 20:00:00,
2013-08-17 15:05:00,75.5,63.6,30.11,East,79,2.0,6.0,66,0.00,,,0.00,WUHU216DAVISVP2,2013-08-17 20:05:00,
2013-08-17 15:10:00,75.9,63.9,30.11,NNW,340,0.0,6.0,66,0.00,,,0.00,WUHU216DAVISVP2,2013-08-17 20:10:00,
2013-08-17 15:15:00,75.8,64.3,30.11,ENE,63,3.0,7.0,67,0.00,,,0.00,WUHU216DAVISVP2,2013-08-17 20:15:00,
2013-08-17 15:20:00,75.6,64.9,30.11,East,86,1.0,7.0,69,0.00,,,0.00,WUHU216DAVISVP2,2013-08-17 20:20:00,
2013-08-17 15:25:00,75.6,64.5,30.11,ENE,65,3.0,6.0,68,0.00,,,0.00,WUHU216DAVISVP2,2013-08-17 20:25:00,
2013-08-17 15:30:00,75.5,64.8,30.11,East,81,1.0,6.0,69,0.00,,,0.00,WUHU216DAVISVP2,2013-08-17 20:30:00,
2013-08-17 15:35:00,75.5,64.8,30.11,ENE,61,3.0,5.0,69,0.00,,,0.00,WUHU216DAVISVP2,2013-08-17 20:35:00,
2013-08-17 15:40:00,75.4,65.1,30.11,ENE,70,0.0,5.0,70,0.00,,,0.00,WUHU216DAVISVP2,2013-08-17 20:40:00,
2013-08-17 15:45:00,75.5,65.6,30.11,ENE,68,4.0,5.0,71,0.00,,,0.00,WUHU216DAVISVP2,2013-08-17 20:45:00,
2013-08-17 15:50:00,75.4,65.9,30.11,NE,56,0.0,4.0,72,0.00,,,0.00,WUHU216DAVISVP2,2013-08-17 20:50:00,
2013-08-17 15:55:00,75.4,65.5,30.10,NNE,33,1.0,5.0,71,0.00,,,0.00,WUHU216DAVISVP2,2013-08-17 20:55:00,
2013-08-17 16:00:00,75.3,65.8,30.10,ENE,63,4.0,5.0,72,0.00,,,0.00,WUHU216DAVISVP2,2013-08-17 21:00:00,
2013-08-17 16:05:00,75.1,65.6,30.10,NE,49,3.0,5.0,72,0.00,,,0.00,WUHU216DAVISVP2,2013-08-17 21:05:00,
2013-08-17 16:10:00,75.1,65.6,30.10,NE,50,2.0,5.0,72,0.00,,,0.00,WUHU216DAVISVP2,2013-08-17 21:10:00,
2013-08-17 16:15:00,75.1,65.6,30.10,East,83,4.0,6.0,72,0.00,,,0.00,WUHU216DAVISVP2,2013-08-17 21:15:00,
2013-08-17 16:20:00,74.9,65.1,30.10,ENE,65,3.0,6.0,71,0.00,,,0.00,WUHU216DAVISVP2,2013-08-17 21:20:00,
2013-08-17 16:25:00,74.8,65.0,30.10,ENE,65,2.0,6.0,71,0.00,,,0.00,WUHU216DAVISVP2,2013-08-17 21:25:00,
2013-08-17 16:30:00,74.9,64.5,30.10,NE,45,4.0,7.0,70,0.00,,,0.00,WUHU216DAVISVP2,2013-08-17 21:30:00,
2013-08-17 16:35:00,74.9,65.3,30.10,ENE,70,2.0,7.0,72,0.00,,,0.00,WUHU216DAVISVP2,2013-08-17 21:35:00,
2013-08-17 16:40:00,75.1,65.1,30.10,NE,50,0.0,4.0,71,0.00,,,0.00,WUHU216DAVISVP2,2013-08-17 21:40:00,
2013-08-17 16:45:00,75.1,65.5,30.10,NE,36,1.0,4.0,72,0.00,,,0.00,WUHU216DAVISVP2,2013-08-17 21:45:00,
2013-08-17 16:50:00,75.3,65.6,30.10,East,91,6.0,6.0,72,0.00,,,0.00,WUHU216DAVISVP2,2013-08-17 21:50:00,
2013-08-17 16:55:00,75.0,65.4,30.10,ESE,107,3.0,6.0,72,0.00,,,0.00,WUHU216DAVISVP2,2013-08-17 21:55:00,
2013-08-17 17:00:00,74.7,64.7,30.10,NE,37,3.0,6.0,71,0.00,,,0.00,WUHU216DAVISVP2,2013-08-17 22:00:00,
2013-08-17 17:05:00,74.6,65.4,30.10,ENE,77,1.0,6.0,73,0.00,,,0.00,WUHU216DAVISVP2,2013-08-17 22:05:00,
2013-08-17 17:10:00,74.5,65.4,30.11,ESE,117,3.0,6.0,73,0.00,,,0.00,WUHU216DAVISVP2,2013-08-17 22:10:00,
2013-08-17 17:15:00,74.3,65.6,30.11,ENE,63,2.0,6.0,74,0.00,,,0.00,WUHU216DAVISVP2,2013-08-17 22:15:00,
2013-08-17 17:20:00,74.2,65.5,30.11,SE,130,1.0,6.0,74,0.00,,,0.00,WUHU216DAVISVP2,2013-08-17 22:20:00,
2013-08-17 17:24:00,74.1,65.8,30.11,ENE,61,4.0,5.0,75,0.00,,,0.00,WUHU216DAVISVP2,2013-08-17 22:24:00,
2013-08-17 17:29:00,73.9,65.3,30.10,East,79,1.0,5.0,74,0.00,,,0.00,WUHU216DAVISVP2,2013-08-17 22:29:00,
2013-08-17 17:34:00,73.8,65.2,30.11,NE,56,5.0,6.0,74,0.00,,,0.00,WUHU216DAVISVP2,2013-08-17 22:34:00,
2013-08-17 17:39:00,73.6,65.0,30.10,NE,51,4.0,6.0,74,0.00,,,0.00,WUHU216DAVISVP2,2013-08-17 22:39:00,
2013-08-17 17:44:00,73.5,64.5,30.10,ENE,63,3.0,5.0,73,0.00,,,0.00,WUHU216DAVISVP2,2013-08-17 22:44:00,
2013-08-17 17:49:00,73.4,64.4,30.10,ENE,74,3.0,8.0,73,0.00,,,0.00,WUHU216DAVISVP2,2013-08-17 22:49:00,
2013-08-17 17:54:00,73.3,63.9,30.10,East,83,3.0,8.0,72,0.00,,,0.00,WUHU216DAVISVP2,2013-08-17 22:54:00,
2013-08-17 17:59:00,73.2,63.4,30.10,ENE,69,4.0,6.0,71,0.00,,,0.00,WUHU216DAVISVP2,2013-08-17 22:59:00,
2013-08-17 18:04:00,73.2,63.8,30.10,ENE,74,2.0,6.0,72,0.00,,,0.00,WUHU216DAVISVP2,2013-08-17 23:04:00,
2013-08-17 18:09:00,73.2,63.8,30.10,ENE,63,4.0,6.0,72,0.00,,,0.00,WUHU216DAVISVP2,2013-08-17 23:09:00,
2013-08-17 18:14:00,73.6,63.8,30.10,ENE,75,2.0,4.0,71,0.00,,,0.00,WUHU216DAVISVP2,2013-08-17 23:14:00,
2013-08-17 18:19:00,73.7,63.9,30.09,ENE,77,1.0,5.0,71,0.00,,,0.00,WUHU216DAVISVP2,2013-08-17 23:19:00,
2013-08-17 18:24:00,73.7,63.9,30.09,East,90,0.0,5.0,71,0.00,,,0.00,WUHU216DAVISVP2,2013-08-17 23:24:00,
2013-08-17 18:29:00,73.6,64.2,30.09,East,80,0.0,3.0,72,0.00,,,0.00,WUHU216DAVISVP2,2013-08-17 23:29:00,
2013-08-17 18:34:00,73.5,64.1,30.09,ENE,68,1.0,2.0,72,0.00,,,0.00,WUHU216DAVISVP2,2013-08-17 23:34:00,
2013-08-17 18:39:00,73.3,63.9,30.09,ENE,69,0.0,2.0,72,0.00,,,0.00,WUHU216DAVISVP2,2013-08-17 23:39:00,
2013-08-17 18:44:00,73.2,64.0,30.09,ENE,70,0.0,2.0,73,0.00,,,0.00,WUHU216DAVISVP2,2013-08-17 23:44:00,
2013-08-17 18:49:00,73.0,63.8,30.10,ENE,67,0.0,2.0,73,0.00,,,0.00,WUHU216DAVISVP2,2013-08-17 23:49:00,
2013-08-17 18:54:00,72.9,64.7,30.10,ENE,68,0.0,2.0,75,0.00,,,0.00,WUHU216DAVISVP2,2013-08-17 23:54:00,
2013-08-17 18:59:00,72.8,64.6,30.10,ENE,68,0.0,2.0,75,0.00,,,0.00,WUHU216DAVISVP2,2013-08-17 23:59:00,
2013-08-17 19:04:00,72.7,64.5,30.10,ENE,68,0.0,1.0,75,0.00,,,0.00,WUHU216DAVISVP2,2013-08-18 00:04:00,
2013-08-17 19:09:00,72.6,64.7,30.10,ENE,68,0.0,1.0,76,0.00,,,0.00,WUHU216DAVISVP2,2013-08-18 00:09:00,
2013-08-17 19:14:00,72.4,64.5,30.10,ENE,67,0.0,0.0,76,0.00,,,0.00,WUHU216DAVISVP2,2013-08-18 00:14:00,
2013-08-17 19:19:00,72.3,64.4,30.10,ENE,68,0.0,0.0,76,0.00,,,0.00,WUHU216DAVISVP2,2013-08-18 00:19:00,
2013-08-17 19:24:00,72.1,64.6,30.10,ENE,67,0.0,0.0,77,0.00,,,0.00,WUHU216DAVISVP2,2013-08-18 00:24:00,
2013-08-17 19:29:00,71.9,64.4,30.10,ENE,68,0.0,0.0,77,0.00,,,0.00,WUHU216DAVISVP2,2013-08-18 00:29:00,
2013-08-17 19:34:00,71.6,65.2,30.10,ENE,67,0.0,0.0,80,0.00,,,0.00,WUHU216DAVISVP2,2013-08-18 00:34:00,
2013-08-17 19:39:00,71.2,65.5,30.10,ENE,67,0.0,0.0,82,0.00,,,0.00,WUHU216DAVISVP2,2013-08-18 00:39:00,
2013-08-17 19:44:00,70.6,65.2,30.11,ENE,67,0.0,1.0,83,0.00,,,0.00,WUHU216DAVISVP2,2013-08-18 00:44:00,
2013-08-17 19:49:00,70.2,64.8,30.11,ENE,67,0.0,1.0,83,0.00,,,0.00,WUHU216DAVISVP2,2013-08-18 00:49:00,
2013-08-17 19:54:00,69.9,64.5,30.11,ENE,67,0.0,1.0,83,0.00,,,0.00,WUHU216DAVISVP2,2013-08-18 00:54:00,
2013-08-17 19:59:00,69.8,64.8,30.11,ENE,67,0.0,1.0,84,0.00,,,0.00,WUHU216DAVISVP2,2013-08-18 00:59:00,
2013-08-17 20:04:00,69.6,64.9,30.10,ENE,67,0.0,0.0,85,0.00,,,0.00,WUHU216DAVISVP2,2013-08-18 01:04:00,
2013-08-17 20:09:00,69.2,64.5,30.10,ENE,67,0.0,0.0,85,0.00,,,0.00,WUHU216DAVISVP2,2013-08-18 01:09:00,
2013-08-17 20:14:00,69.0,64.7,30.10,ENE,67,0.0,0.0,86,0.00,,,0.00,WUHU216DAVISVP2,2013-08-18 01:14:00,
2013-08-17 20:19:00,68.7,64.4,30.10,ENE,67,0.0,0.0,86,0.00,,,0.00,WUHU216DAVISVP2,2013-08-18 01:19:00,
2013-08-17 20:24:00,68.6,64.6,30.10,ENE,67,0.0,0.0,87,0.00,,,0.00,WUHU216DAVISVP2,2013-08-18 01:24:00,
2013-08-17 20:29:00,68.5,64.5,30.10,ENE,67,0.0,0.0,87,0.00,,,0.00,WUHU216DAVISVP2,2013-08-18 01:29:00,
2013-08-17 20:34:00,68.5,64.5,30.10,ENE,67,0.0,0.0,87,0.00,,,0.00,WUHU216DAVISVP2,2013-08-18 01:34:00,
2013-08-17 20:39:00,68.3,64.3,30.10,ENE,67,0.0,0.0,87,0.00,,,0.00,WUHU216DAVISVP2,2013-08-18 01:39:00,
2013-08-17 20:44:00,68.2,64.2,30.10,ENE,67,0.0,0.0,87,0.00,,,0.00,WUHU216DAVISVP2,2013-08-18 01:44:00,
2013-08-17 20:49:00,68.2,64.5,30.10,ENE,67,0.0,0.0,88,0.00,,,0.00,WUHU216DAVISVP2,2013-08-18 01:49:00,
2013-08-17 20:54:00,68.2,64.2,30.10,ENE,67,0.0,0.0,87,0.00,,,0.00,WUHU216DAVISVP2,2013-08-18 01:54:00,
2013-08-17 20:59:00,68.1,64.1,30.10,ENE,67,0.0,0.0,87,0.00,,,0.00,WUHU216DAVISVP2,2013-08-18 01:59:00,
2013-08-17 21:04:00,67.9,64.2,30.10,ENE,67,0.0,0.0,88,0.00,,,0.00,WUHU216DAVISVP2,2013-08-18 02:04:00,
2013-08-17 21:09:00,67.8,64.1,30.10,ENE,67,0.0,0.0,88,0.00,,,0.00,WUHU216DAVISVP2,2013-08-18 02:09:00,
2013-08-17 21:14:00,67.7,64.0,30.11,ENE,67,0.0,0.0,88,0.00,,,0.00,WUHU216DAVISVP2,2013-08-18 02:14:00,
2013-08-17 21:19:00,67.8,64.4,30.11,ENE,67,0.0,0.0,89,0.00,,,0.00,WUHU216DAVISVP2,2013-08-18 02:19:00,
2013-08-17 21:24:00,68.0,64.3,30.10,ENE,67,0.0,0.0,88,0.00,,,0.00,WUHU216DAVISVP2,2013-08-18 02:24:00,
2013-08-17 21:29:00,68.0,64.3,30.10,ENE,67,0.0,0.0,88,0.00,,,0.00,WUHU216DAVISVP2,2013-08-18 02:29:00,
2013-08-17 21:34:00,67.8,64.1,30.10,ENE,67,0.0,0.0,88,0.00,,,0.00,WUHU216DAVISVP2,2013-08-18 02:34:00,
2013-08-17 21:39:00,67.5,63.8,30.10,ENE,67,0.0,0.0,88,0.00,,,0.00,WUHU216DAVISVP2,2013-08-18 02:39:00,
2013-08-17 21:44:00,67.2,63.8,30.10,ENE,67,0.0,0.0,89,0.00,,,0.00,WUHU216DAVISVP2,2013-08-18 02:44:00,
2013-08-17 21:49:00,66.9,63.5,30.10,ENE,67,0.0,0.0,89,0.00,,,0.00,WUHU216DAVISVP2,2013-08-18 02:49:00,
2013-08-17 21:54:00,66.6,63.6,30.10,ENE,67,0.0,0.0,90,0.00,,,0.00,WUHU216DAVISVP2,2013-08-18 02:54:00,
2013-08-17 21:59:00,66.5,63.5,30.10,ENE,67,0.0,0.0,90,0.00,,,0.00,WUHU216DAVISVP2,2013-08-18 02:59:00,
2013-08-17 22:04:00,66.4,63.4,30.11,ENE,67,0.0,0.0,90,0.00,,,0.00,WUHU216DAVISVP2,2013-08-18 03:04:00,
2013-08-17 22:09:00,66.4,63.7,30.11,ENE,67,0.0,0.0,91,0.00,,,0.00,WUHU216DAVISVP2,2013-08-18 03:09:00,
2013-08-17 22:14:00,66.4,63.7,30.11,ENE,67,0.0,0.0,91,0.00,,,0.00,WUHU216DAVISVP2,2013-08-18 03:14:00,
2013-08-17 22:19:00,66.6,63.9,30.11,ENE,67,0.0,0.0,91,0.00,,,0.00,WUHU216DAVISVP2,2013-08-18 03:19:00,
2013-08-17 22:24:00,66.7,64.0,30.11,ENE,67,0.0,0.0,91,0.00,,,0.00,WUHU216DAVISVP2,2013-08-18 03:24:00,
2013-08-17 22:29:00,67.0,64.3,30.11,ENE,67,0.0,0.0,91,0.00,,,0.00,WUHU216DAVISVP2,2013-08-18 03:29:00,
2013-08-17 22:34:00,67.2,64.1,30.11,ENE,67,0.0,0.0,90,0.00,,,0.00,WUHU216DAVISVP2,2013-08-18 03:34:00,
2013-08-17 22:39:00,67.3,64.2,30.11,ENE,67,0.0,0.0,90,0.00,,,0.00,WUHU216DAVISVP2,2013-08-18 03:39:00,
2013-08-17 22:44:00,67.3,64.2,30.10,ENE,67,0.0,0.0,90,0.00,,,0.00,WUHU216DAVISVP2,2013-08-18 03:44:00,
2013-08-17 22:49:00,67.4,64.0,30.10,ENE,67,0.0,0.0,89,0.00,,,0.00,WUHU216DAVISVP2,2013-08-18 03:49:00,
2013-08-17 22:54:00,67.5,64.1,30.10,ENE,67,0.0,0.0,89,0.00,,,0.00,WUHU216DAVISVP2,2013-08-18 03:54:00,
2013-08-17 22:59:00,67.6,64.2,30.10,ENE,67,0.0,0.0,89,0.00,,,0.00,WUHU216DAVISVP2,2013-08-18 03:59:00,
2013-08-17 23:01:00,67.6,64.2,30.10,ENE,67,0.0,0.0,89,0.00,,,0.00,WUHU216DAVISVP2,2013-08-18 04:01:00,
2013-08-17 23:06:00,67.6,64.2,30.10,ENE,67,0.0,0.0,89,0.00,,,0.00,WUHU216DAVISVP2,2013-08-18 04:06:00,
2013-08-17 23:11:00,67.6,64.2,30.10,ENE,67,0.0,0.0,89,0.00,,,0.00,WUHU216DAVISVP2,2013-08-18 04:11:00,
2013-08-17 23:16:00,67.8,64.1,30.10,ENE,66,0.0,0.0,88,0.00,,,0.00,WUHU216DAVISVP2,2013-08-18 04:16:00,
2013-08-17 23:21:00,68.1,64.1,30.10,ENE,66,0.0,0.0,87,0.00,,,0.00,WUHU216DAVISVP2,2013-08-18 04:21:00,
2013-08-17 23:26:00,68.2,63.9,30.10,NNE,12,0.0,0.0,86,0.00,,,0.00,WUHU216DAVISVP2,2013-08-18 04:26:00,
2013-08-17 23:31:00,68.3,63.6,30.10,North,11,0.0,0.0,85,0.00,,,0.00,WUHU216DAVISVP2,2013-08-18 04:31:00,
2013-08-17 23:36:00,68.3,63.6,30.10,ENE,72,0.0,0.0,85,0.00,,,0.00,WUHU216DAVISVP2,2013-08-18 04:36:00,
2013-08-17 23:41:00,68.4,63.4,30.09,ENE,72,0.0,0.0,84,0.00,,,0.00,WUHU216DAVISVP2,2013-08-18 04:41:00,
2013-08-17 23:46:00,68.5,63.2,30.10,ENE,64,0.0,0.0,83,0.00,,,0.00,WUHU216DAVISVP2,2013-08-18 04:46:00,
2013-08-17 23:51:00,68.7,63.4,30.10,ENE,63,0.0,0.0,83,0.00,,,0.00,WUHU216DAVISVP2,2013-08-18 04:51:00,
2013-08-17 23:56:00,68.7,63.0,30.09,ENE,65,0.0,0.0,82,0.00,,,0.00,WUHU216DAVISVP2,2013-08-18 04:56:00,